| time (UTC) | temp F | wind direction | speed MPH | gust MPH | rain 1hr in | rain 24hr in | rain mn in | humidity % | barometer mb |
| 20260508220005 | 62 | 276 | 1.0 | 0.0 | 0.00 | 0.00 | 0.00 | 45 | 998.1 |
| 20260508213014 | 59 | 290 | 0.0 | 0.0 | 0.00 | 0.00 | 0.00 | 47 | 997.5 |
| 20260508210018 | 58 | 262 | 1.0 | 0.0 | 0.00 | 0.00 | 0.00 | 48 | 997.5 |
| 20260508204505 | 57 | 293 | 2.0 | 0.0 | 0.00 | 0.00 | 0.00 | 50 | 997.2 |
| 20260508203015 | 57 | 214 | 1.0 | 0.0 | 0.00 | 0.00 | 0.00 | 49 | 997.0 |
| 20260508201524 | 57 | 249 | 0.0 | 0.0 | 0.00 | 0.00 | 0.00 | 49 | 997.2 |
| 20260508200012 | 58 | 248 | 1.0 | 0.0 | 0.00 | 0.00 | 0.00 | 46 | 997.0 |
| 20260508194516 | 57 | 271 | 3.0 | 0.0 | 0.00 | 0.00 | 0.00 | 49 | 997.0 |
| 20260508193020 | 57 | 228 | 2.0 | 0.0 | 0.00 | 0.00 | 0.00 | 49 | 996.9 |
| 20260508191514 | 57 | 262 | 0.0 | 0.0 | 0.00 | 0.00 | 0.00 | 47 | 996.9 |
| 20260508190103 | 58 | 285 | 2.0 | 0.0 | 0.00 | 0.00 | 0.00 | 46 | 996.9 |
| 20260508184604 | 58 | 243 | 3.0 | 0.0 | 0.00 | 0.00 | 0.00 | 44 | 996.6 |
| 20260508183103 | 58 | 281 | 1.0 | 0.0 | 0.00 | 0.00 | 0.00 | 44 | 996.3 |
| 20260508181506 | 58 | 307 | 2.0 | 0.0 | 0.00 | 0.00 | 0.00 | 44 | 996.3 |
| 20260508180024 | 58 | 278 | 2.0 | 0.0 | 0.00 | 0.00 | 0.00 | 43 | 996.8 |
| 20260508174512 | 58 | 263 | 6.0 | 0.0 | 0.00 | 0.00 | 0.00 | 44 | 996.8 |
| 20260508173058 | 57 | 274 | 5.0 | 0.0 | 0.00 | 0.00 | 0.00 | 44 | 996.5 |
| 20260508171524 | 57 | 285 | 6.0 | 0.0 | 0.00 | 0.00 | 0.00 | 44 | 996.6 |
| 20260508170019 | 57 | 227 | 5.0 | 0.0 | 0.00 | 0.00 | 0.00 | 43 | 996.6 |
| 20260508164553 | 57 | 279 | 2.0 | 0.0 | 0.00 | 0.00 | 0.00 | 48 | 996.9 |
| 20260508163107 | 58 | 273 | 4.0 | 0.0 | 0.00 | 0.00 | 0.00 | 46 | 996.4 |
| 20260508161523 | 58 | 288 | 7.0 | 0.0 | 0.00 | 0.00 | 0.00 | 42 | 996.4 |
| 20260508160023 | 59 | 242 | 6.0 | 0.0 | 0.00 | 0.00 | 0.00 | 43 | 995.9 |
| 20260508154500 | 59 | 265 | 6.0 | 0.0 | 0.00 | 0.00 | 0.00 | 41 | 996.1 |
| 20260508153014 | 59 | 274 | 8.0 | 0.0 | 0.00 | 0.00 | 0.00 | 42 | 995.7 |
| 20260508151532 | 59 | 310 | 7.0 | 0.0 | 0.00 | 0.00 | 0.00 | 43 | 995.2 |
| 20260508150004 | 59 | 276 | 7.0 | 0.0 | 0.00 | 0.00 | 0.07 | 45 | 995.3 |
| 20260508144524 | 59 | 175 | 6.0 | 0.0 | 0.00 | 0.00 | 0.07 | 46 | 995.3 |
| 20260508143057 | 59 | 258 | 5.0 | 0.0 | 0.00 | 0.00 | 0.07 | 50 | 995.5 |
| 20260508141521 | 59 | 191 | 3.0 | 0.0 | 0.00 | 0.00 | 0.07 | 55 | 995.8 |
| 20260508140033 | 60 | 262 | 5.0 | 0.0 | 0.00 | 0.00 | 0.07 | 54 | 995.8 |
| 20260508134522 | 61 | 278 | 7.0 | 0.0 | 0.00 | 0.00 | 0.07 | 52 | 995.4 |
| 20260508133021 | 60 | 290 | 4.0 | 0.0 | 0.00 | 0.00 | 0.07 | 54 | 995.7 |
| 20260508131509 | 59 | 110 | 1.0 | 0.0 | 0.00 | 0.00 | 0.07 | 60 | 995.9 |
| 20260508124533 | 59 | 290 | 0.0 | 0.0 | 0.00 | 0.00 | 0.07 | 64 | 996.4 |
| 20260508121519 | 60 | 278 | 2.0 | 0.0 | 0.00 | 0.00 | 0.07 | 65 | 996.1 |
| 20260508114506 | 62 | 262 | 2.0 | 0.0 | 0.00 | 0.00 | 0.07 | 70 | 995.9 |
| 20260508113016 | 62 | 275 | 1.0 | 0.0 | 0.00 | 0.00 | 0.07 | 70 | 996.0 |
| 20260508111510 | 62 | 238 | 1.0 | 0.0 | 0.00 | 0.00 | 0.07 | 69 | 995.9 |
| 20260508110005 | 63 | 283 | 1.0 | 0.0 | 0.00 | 0.00 | 0.07 | 72 | 995.9 |
| 20260508104505 | 62 | 231 | 1.0 | 0.0 | 0.00 | 0.00 | 0.07 | 78 | 995.4 |
| 20260508103119 | 63 | 259 | 0.0 | 0.0 | 0.00 | 0.00 | 0.07 | 80 | 995.3 |
| 20260508101514 | 63 | 188 | 0.0 | 0.0 | 0.00 | 0.00 | 0.07 | 80 | 994.9 |
| 20260508100103 | 63 | 269 | 0.0 | 0.0 | 0.00 | 0.00 | 0.07 | 80 | 994.9 |
| 20260508094603 | 63 | 245 | 0.0 | 0.0 | 0.00 | 0.00 | 0.07 | 81 | 994.3 |
| 20260508093012 | 64 | 176 | 0.0 | 0.0 | 0.00 | 0.00 | 0.07 | 81 | 994.6 |
| 20260508091608 | 64 | 269 | 0.0 | 0.0 | 0.00 | 0.00 | 0.07 | 81 | 994.8 |
| 20260508090108 | 64 | 267 | 0.0 | 0.0 | 0.00 | 0.00 | 0.07 | 81 | 994.8 |
| 20260508084533 | 65 | 271 | 0.0 | 0.0 | 0.00 | 0.00 | 0.07 | 81 | 994.7 |
| 20260508081608 | 66 | 226 | 0.0 | 0.0 | 0.00 | 0.00 | 0.07 | 80 | 994.7 |
| 20260508080113 | 68 | 242 | 0.0 | 0.0 | 0.00 | 0.00 | 0.06 | 79 | 994.9 |
| 20260508074503 | 68 | 253 | 0.0 | 0.0 | 0.00 | 0.00 | 0.02 | 76 | 994.5 |
| 20260508073001 | 69 | 271 | 0.0 | 0.0 | 0.00 | 0.00 | 0.02 | 77 | 994.6 |
| 20260508071538 | 68 | 282 | 0.0 | 0.0 | 0.00 | 0.00 | 0.02 | 77 | 994.9 |
| 20260508064519 | 69 | 263 | 2.0 | 0.0 | 0.00 | 0.00 | 0.02 | 74 | 994.8 |
| 20260508063105 | 71 | 310 | 2.0 | 0.0 | 0.00 | 0.00 | 0.02 | 69 | 994.8 |
| 20260508061527 | 74 | 309 | 1.0 | 0.0 | 0.00 | 0.00 | 0.02 | 61 | 994.3 |
| 20260508060115 | 76 | 283 | 1.0 | 0.0 | 0.00 | 0.00 | 0.01 | 56 | 994.8 |
| 20260508054607 | 77 | 258 | 1.0 | 0.0 | 0.00 | 0.00 | 0.00 | 49 | 994.5 |
| 20260508053013 | 77 | 103 | 0.0 | 0.0 | 0.00 | 0.00 | 0.00 | 46 | 994.7 |
| 20260508051556 | 77 | 128 | 1.0 | 0.0 | 0.00 | 0.00 | 0.00 | 47 | 994.8 |
| 20260508050029 | 77 | 146 | 2.0 | 0.0 | 0.00 | 0.00 | 0.00 | 46 | 995.2 |
| 20260508043004 | 77 | 120 | 3.0 | 0.0 | 0.00 | 0.00 | 0.00 | 47 | 995.9 |
| 20260508041506 | 77 | 356 | 3.0 | 0.0 | 0.00 | 0.00 | 0.00 | 46 | 996.2 |
| 20260508040028 | 77 | 113 | 2.0 | 0.0 | 0.00 | 0.00 | 0.00 | 45 | 996.2 |
| 20260508034518 | 78 | 117 | 2.0 | 0.0 | 0.00 | 0.00 | 0.00 | 42 | 995.8 |
| 20260508033114 | 78 | 109 | 1.0 | 0.0 | 0.00 | 0.00 | 0.00 | 41 | 996.1 |
| 20260508030107 | 78 | 267 | 0.0 | 0.0 | 0.00 | 0.00 | 0.00 | 42 | 996.5 |
| 20260508024510 | 78 | 105 | 1.0 | 0.0 | 0.00 | 0.00 | 0.00 | 40 | 997.3 |
| 20260508023020 | 78 | 97 | 1.0 | 0.0 | 0.00 | 0.00 | 0.00 | 42 | 996.6 |
| 20260508021554 | 77 | 251 | 1.0 | 0.0 | 0.00 | 0.00 | 0.00 | 44 | 996.9 |
| 20260508020038 | 76 | 271 | 0.0 | 0.0 | 0.00 | 0.00 | 0.00 | 46 | 997.8 |
| 20260508013109 | 76 | 290 | 1.0 | 0.0 | 0.00 | 0.00 | 0.00 | 45 | 998.8 |
| 20260508011516 | 76 | 134 | 0.0 | 0.0 | 0.00 | 0.00 | 0.00 | 43 | 998.2 |
| 20260508010022 | 76 | 283 | 0.0 | 0.0 | 0.00 | 0.00 | 0.00 | 44 | 998.5 |
| 20260508004516 | 76 | 75 | 1.0 | 0.0 | 0.00 | 0.00 | 0.00 | 43 | 998.9 |
| 20260508003023 | 77 | 276 | 1.0 | 0.0 | 0.00 | 0.00 | 0.00 | 44 | 998.9 |
| 20260508001603 | 76 | 156 | 0.0 | 0.0 | 0.00 | 0.00 | 0.00 | 45 | 999.1 |
| 20260508000111 | 75 | 134 | 0.0 | 0.0 | 0.00 | 0.00 | 0.00 | 47 | 999.3 |
| 20260507234529 | 73 | 103 | 0.0 | 0.0 | 0.00 | 0.00 | 0.00 | 50 | 999.5 |
| 20260507233018 | 71 | 287 | 1.0 | 0.0 | 0.00 | 0.00 | 0.00 | 52 | 999.9 |
| 20260507231559 | 70 | 296 | 0.0 | 0.0 | 0.00 | 0.00 | 0.00 | 56 | 999.9 |
| 20260507230031 | 69 | 274 | 0.0 | 0.0 | 0.00 | 0.00 | 0.00 | 58 | 1000.0 |
| 20260507224529 | 67 | 229 | 0.0 | 0.0 | 0.00 | 0.00 | 0.00 | 61 | 1000.1 |
| 20260507223001 | 66 | 290 | 0.0 | 0.0 | 0.00 | 0.00 | 0.00 | 62 | 1000.4 |
| 20260507221603 | 65 | 109 | 0.0 | 0.0 | 0.00 | 0.00 | 0.00 | 66 | 1000.5 |